Home > Weather > Louisville > Past weeks

Flag for U.S.A. Weather for the Past 2 Weeks in Louisville, Kentucky, U.S.A.

Now
27 °F

Passing clouds.


Feels Like: 14 °F
Forecast: 12 / 23 °F
Wind: 17 mph from Northwest

Location: Standiford Field

Current Time: Feb 13, 2016 at 12:14:23 AM

Latest Report: Feb 12, 2016 at 10:56 PM


Visibility: 10 mi

Pressure: 30.34 "Hg

Humidity: 46%

Dew point: 9 °F

Location of LouisvilleLocation

Historic Weather in Louisville — Graph

°F

Louisville Temperature Yesterday

Maximum temperature yesterday: 34 °F (at 2:56 PM)
Minimum temperature yesterday: 27 °F (at 12:56 AM)
Average temperature yesterday: 29 °F

High & Low Weather Summary for the Past Weeks

 TemperatureHumidityPressure
High68 °F (Jan 31, 3:56 PM)92% (Feb 8, 6:56 AM)30.47 "Hg (Feb 8, 6:56 AM)
Low17 °F (Feb 10, 6:56 AM)24% (Feb 7, 1:56 PM)29.57 "Hg (Feb 2, 10:56 PM)
Average40 °F59%30.03 "Hg
* Reported Jan 28 10:56 PM — Feb 12 10:56 PM, Louisville, Weather by CustomWeather, © 2016

Note: Actual official high and low records may vary slightly from our data, if they occured in-between our weather recording intervals... More about our weather records

Advertising

Louisville Weather History for the Previous 24 Hours

 ConditionsComfort  
Time TempWeatherWind HumidityBarometerVisibility
10:56 PM
Fri, Feb 12
27 °FPassing clouds.17 mph46%30.34 "Hg10 mi
9:56 PM27 °FPassing clouds.12 mph49%30.34 "Hg10 mi
8:56 PM28 °FLight snow. Mostly cloudy.18 mph66%30.32 "Hg4 mi
7:56 PM29 °FPartly cloudy.20 mph56%30.28 "Hg9 mi
6:56 PM30 °FLight snow. Passing clouds.17 mph61%30.25 "Hg8 mi
5:56 PM31 °FLight snow. Mostly cloudy.21 mph61%30.23 "Hg8 mi
4:56 PM32 °FMostly cloudy.17 mph59%30.20 "Hg10 mi
3:56 PM33 °FMostly cloudy.21 mph56%30.17 "Hg10 mi
2:56 PM34 °FMostly cloudy.18 mph54%30.16 "Hg10 mi
1:56 PM33 °FMostly cloudy.13 mph58%30.16 "Hg10 mi
12:56 PM33 °FMostly cloudy.13 mph56%30.18 "Hg10 mi
11:56 AM31 °FOvercast.7 mph61%30.20 "Hg10 mi
10:56 AM29 °FLight snow. Mostly cloudy.7 mph69%30.22 "Hg8 mi
9:58 AM28 °FLight snow. Mostly cloudy.6 mph69%30.21 "Hg2 mi
8:56 AM28 °FMostly cloudy.No wind53%30.22 "Hg10 mi
7:56 AM28 °FMostly cloudy.3 mph51%30.20 "Hg10 mi
6:56 AM28 °FMostly cloudy.No wind51%30.21 "Hg10 mi
5:56 AM27 °FOvercast.5 mph53%30.22 "Hg10 mi
4:56 AM27 °FOvercast.No wind51%30.22 "Hg10 mi
3:56 AM27 °FOvercast.6 mph49%30.21 "Hg10 mi
2:56 AM27 °FOvercast.6 mph49%30.23 "Hg10 mi
1:56 AM27 °FMostly cloudy.6 mph46%30.25 "Hg10 mi
12:56 AM27 °FMostly cloudy.6 mph45%30.28 "Hg10 mi
Weather by CustomWeather, © 2016

See weather overviewHow to use our weather pages